Preview of NWS' New Version of Forecast
This preview is not operational and should not be used for support decisions.

Regional Weather Roundup (RWR)

Issued by National Weather Service (NWS)

                            
000
ASUS43 KBIS 161810
RWRND 

NORTH DAKOTA REGIONAL WEATHER ROUNDUP
NATIONAL WEATHER SERVICE BISMARCK ND
100 PM CDT MON SEP 16 2019

NOTE: "FAIR" INDICATES FEW OR NO CLOUDS BELOW 12,000 FEET WITH NO
SIGNIFICANT WEATHER AND/OR OBSTRUCTIONS TO VISIBILITY.


NDZ001>003-009>011-017-161900-
NORTHWEST NORTH DAKOTA
  
CITY           SKY/WX    TMP DP  RH WIND       PRES   REMARKS
WILLISTON      SUNNY     82  64  54 VRB3      29.69F                  
6HR MIN TEMP:  51; 6HR MAX TEMP:  82;                                

MINOT          SUNNY     78  64  61 E5        29.71F                  
MINOT AFB      SUNNY     77  64  64 E7        29.70F                  
$$
 
NDZ018>021-031>035-040>046-161900-
SOUTHWEST NORTH DAKOTA
  
CITY           SKY/WX    TMP DP  RH WIND       PRES   REMARKS
BISMARCK       MOSUNNY   78  65  63 S9        29.74F                  
6HR MIN TEMP:  58; 6HR MAX TEMP:  78;                                

DICKINSON      SUNNY     89  56  32 SE12      29.71F                  
GARRISON         N/A     77  65  66 SE7       29.72F                  
6HR MIN TEMP:  51; 6HR MAX TEMP:  77;                                

HETTINGER ARPT SUNNY     83  60  45 SE10      29.76F                  
$$
 
NDZ004>008-012>016-024-026-027-054-161900-
NORTHEAST NORTH DAKOTA
  
CITY           SKY/WX    TMP DP  RH WIND       PRES   REMARKS
GRAND FORKS    MOSUNNY   80  66  62 S16       29.77S                  
GRND FRKS AFB  MOSUNNY   81  69  65 S13       29.77F                  
DEVILS LAKE    SUNNY     76  67  73 SE8       29.76F HAZE             
$$
 
NDZ022-023-025-028>030-036>039-047>053-161900-
SOUTHEAST NORTH DAKOTA
  
CITY           SKY/WX    TMP DP  RH WIND       PRES   REMARKS
FARGO          MOSUNNY   82  69  64 S17G23    29.80F                  
6HR MIN TEMP:  68; 6HR MAX TEMP:  82;                                

JAMESTOWN      SUNNY     83  69  62 S13       29.77S                  
$$